Sigfox identifier Datetime Temperature Humidity SNR
002EF4D9 2019-04-23 15:05:44 21.5 29 17.6
002EF4D9 2019-04-23 14:32:57 21.4 29 17.6
002EF4D9 2019-04-23 14:00:10 21.5 30 17.7
002EF4D9 2019-04-23 13:27:24 21.3 30 17.8
002EF4D9 2019-04-23 12:54:37 21.3 29 19.5
002EF4D9 2019-04-23 12:21:51 21.3 29 19.6
002EF4D9 2019-04-23 11:49:04 21.3 29 19.7
002EF4D9 2019-04-23 11:16:16 21.3 29 19.7
002EF4D9 2019-04-23 10:43:30 21.1 29 19.8
002EF4D9 2019-04-23 10:10:44 21.1 28 19.9
002EF4D9 2019-04-23 09:37:57 21.1 28 19.8
002EF4D9 2019-04-23 09:05:11 21 28 20.1
002EF4D9 2019-04-23 08:32:22 20.9 28 21.4
002EF4D9 2019-04-23 07:59:37 20.9 28 21.8
002EF4D9 2019-04-23 07:26:47 20.8 28 22
002EF4D9 2019-04-23 06:54:00 20.9 28 22
002EF4D9 2019-04-23 06:21:17 20.9 28 22
002EF4D9 2019-04-23 05:48:26 20.9 28 22.1
002EF4D9 2019-04-23 05:15:39 20.8 28 22.3
002EF4D9 2019-04-23 04:42:53 20.9 28 22.3
002EF4D9 2019-04-23 04:10:04 20.9 28 22.3
002EF4D9 2019-04-23 03:37:18 20.8 28 22.2
002EF4D9 2019-04-23 03:04:32 20.9 28 22.2
002EF4D9 2019-04-23 02:31:44 20.8 28 22.1
002EF4D9 2019-04-23 01:58:58 20.9 28 22.4
002EF4D9 2019-04-23 01:26:12 21 28 22.4
002EF4D9 2019-04-23 00:53:24 20.9 28 22.4
002EF4D9 2019-04-23 00:20:38 20.9 28 22.4
002EF4D9 2019-04-22 23:47:50 20.9 28 21.4
002EF4D9 2019-04-22 23:15:06 20.9 28 21.4
002EF4D9 2019-04-22 22:42:16 20.8 28 21.2
002EF4D9 2019-04-22 22:09:29 20.9 28 21.2
002EF4D9 2019-04-22 21:36:44 20.9 28 21.2
002EF4D9 2019-04-22 21:03:57 20.9 28 21.1
002EF4D9 2019-04-22 20:31:10 20.9 28 21
002EF4D9 2019-04-22 19:58:23 20.9 28 19.4
002EF4D9 2019-04-22 19:25:36 20.9 28 19
002EF4D9 2019-04-22 18:52:50 20.8 28 18.6
002EF4D9 2019-04-22 18:20:04 20.8 28 18.9
002EF4D9 2019-04-22 17:47:19 20.8 28 19.2
002EF4D9 2019-04-22 17:14:32 20.9 28 19.3
002EF4D9 2019-04-22 16:41:44 20.8 28 19
002EF4D9 2019-04-22 16:08:57 20.9 28 18.7
002EF4D9 2019-04-22 15:36:11 20.9 28 18.8
002EF4D9 2019-04-22 15:03:25 20.8 28 19
002EF4D9 2019-04-22 14:30:39 20.8 28 18.9
002EF4D9 2019-04-22 13:57:53 20.9 27 18.9
002EF4D9 2019-04-22 13:25:07 20.8 27 18.9
002EF4D9 2019-04-22 12:52:21 20.9 27 18.7
002EF4D9 2019-04-22 12:19:34 20.9 27 19
002EF4D9 2019-04-22 11:46:47 20.8 27 19.3
002EF4D9 2019-04-22 11:14:01 20.9 27 19.2
002EF4D9 2019-04-22 10:41:15 21 27 19.1
002EF4D9 2019-04-22 10:08:28 21 27 19.1
002EF4D9 2019-04-22 09:35:42 21 26 19.1
002EF4D9 2019-04-22 09:02:54 21 26 19.3
002EF4D9 2019-04-22 08:30:07 21 26 19.2
002EF4D9 2019-04-22 07:57:21 20.9 26 19.2
002EF4D9 2019-04-22 07:24:34 20.9 26 19.2
002EF4D9 2019-04-22 06:51:48 20.9 26 19.2
002EF4D9 2019-04-22 06:19:01 21 26 19.1
002EF4D9 2019-04-22 05:46:15 20.9 26 19.2
002EF4D9 2019-04-22 05:13:29 21 26 19.4
002EF4D9 2019-04-22 04:40:45 20.9 26 19.4
002EF4D9 2019-04-22 04:07:57 21.1 26 19.2
002EF4D9 2019-04-22 03:35:09 21.1 26 19.1
002EF4D9 2019-04-22 03:02:23 21.1 26 19.3
002EF4D9 2019-04-22 02:29:36 21.1 26 19.3
002EF4D9 2019-04-22 01:56:51 21 26 19.2
002EF4D9 2019-04-22 01:24:04 21.1 26 19
002EF4D9 2019-04-22 00:51:19 21 26 19.2
002EF4D9 2019-04-22 00:18:33 21.1 26 19.4
002EF4D9 2019-04-21 23:45:50 21 26 19.1
002EF4D9 2019-04-21 23:13:00 21.1 26 18.9
002EF4D9 2019-04-21 22:40:13 21.2 26 18.8
002EF4D9 2019-04-21 22:07:26 21.2 26 18.8
002EF4D9 2019-04-21 21:34:42 21.3 26 18.9
002EF4D9 2019-04-21 21:01:53 21.2 26 19.1
002EF4D9 2019-04-21 20:29:06 21.3 26 19.6
002EF4D9 2019-04-21 19:56:19 21.3 26 19.8
002EF4D9 2019-04-21 19:23:31 21.2 26 19.7
002EF4D9 2019-04-21 18:50:44 21.2 26 19.7
002EF4D9 2019-04-21 18:17:59 21.1 26 19.9
002EF4D9 2019-04-21 17:45:17 21 26 19.9
002EF4D9 2019-04-21 17:12:27 21.1 26 20.2
002EF4D9 2019-04-21 16:39:42 21 26 20.4
002EF4D9 2019-04-21 16:06:57 21.1 26 20.2
002EF4D9 2019-04-21 15:34:11 21 26 20.3
002EF4D9 2019-04-21 15:01:25 21 26 19.9
002EF4D9 2019-04-21 14:28:38 20.9 26 20
002EF4D9 2019-04-21 13:55:52 20.9 26 19.9
002EF4D9 2019-04-21 13:23:05 20.9 26 19.9
002EF4D9 2019-04-21 12:50:19 20.9 26 20.2
002EF4D9 2019-04-21 12:17:31 20.9 26 20.4
002EF4D9 2019-04-21 11:44:44 20.8 26 20.4
002EF4D9 2019-04-21 11:11:58 20.9 26 20.3
002EF4D9 2019-04-21 10:39:12 20.9 26 20.2
002EF4D9 2019-04-21 10:06:26 20.8 26 20.4
002EF4D9 2019-04-21 09:33:39 20.8 26 20.5
002EF4D9 2019-04-21 09:00:52 20.9 26 20.5
002EF4D9 2019-04-21 08:28:07 20.9 26 20.4
002EF4D9 2019-04-21 07:55:21 20.8 26 20.7
002EF4D9 2019-04-21 07:22:34 20.8 26 20.6
002EF4D9 2019-04-21 06:49:48 20.9 26 20.5
002EF4D9 2019-04-21 06:17:02 20.9 26 20.3
002EF4D9 2019-04-21 05:44:17 20.8 26 20.3
002EF4D9 2019-04-21 05:11:31 20.9 26 20.4
002EF4D9 2019-04-21 04:38:44 20.8 26 20.2
002EF4D9 2019-04-21 04:05:58 20.9 26 20.3
002EF4D9 2019-04-21 03:33:12 20.9 26 20
002EF4D9 2019-04-21 03:00:25 21 26 19.9
002EF4D9 2019-04-21 02:27:39 20.9 26 19.9
002EF4D9 2019-04-21 01:54:53 21 26 19.7
002EF4D9 2019-04-21 01:22:08 21 26 19.7
002EF4D9 2019-04-21 00:49:19 21.1 25 19.5
002EF4D9 2019-04-21 00:16:33 21.1 25 19.6
002EF4D9 2019-04-20 23:43:48 21 25 19.5
002EF4D9 2019-04-20 23:11:00 21 25 19.2
002EF4D9 2019-04-20 22:38:15 21 25 19
002EF4D9 2019-04-20 22:05:29 21.1 25 19
002EF4D9 2019-04-20 21:32:43 21 25 19.3
002EF4D9 2019-04-20 20:59:57 21.1 25 19.3
002EF4D9 2019-04-20 20:27:12 21.1 25 19.1
002EF4D9 2019-04-20 19:54:25 21.1 25 18.9
002EF4D9 2019-04-20 19:21:35 21.1 25 18.7
002EF4D9 2019-04-20 18:48:48 21.1 24 18.5
002EF4D9 2019-04-20 18:16:03 21.1 24 18.4
002EF4D9 2019-04-20 17:43:18 21.1 24 18.1
002EF4D9 2019-04-20 17:10:30 21.1 24 18.2
002EF4D9 2019-04-20 16:37:44 21 24 18.1
002EF4D9 2019-04-20 16:04:58 21 24 18.5
002EF4D9 2019-04-20 15:32:11 21.1 24 18.5
002EF4D9 2019-04-20 14:59:24 21.1 24 19.1
002EF4D9 2019-04-20 14:26:37 21 24 19.1
002EF4D9 2019-04-20 13:53:49 21 24 19.2
002EF4D9 2019-04-20 13:21:02 20.8 24 19.5
002EF4D9 2019-04-20 12:48:15 20.9 24 21.1
002EF4D9 2019-04-20 12:15:31 20.9 24 21.2
002EF4D9 2019-04-20 11:42:42 20.8 24 21.5
002EF4D9 2019-04-20 11:09:56 20.9 23 21.5
002EF4D9 2019-04-20 10:37:09 20.9 23 21.5
002EF4D9 2019-04-20 10:04:25 20.8 23 21.6
002EF4D9 2019-04-20 09:31:36 20.9 23 21.8
002EF4D9 2019-04-20 08:58:51 20.9 23 22.1
002EF4D9 2019-04-20 08:26:04 20.8 23 22.4
002EF4D9 2019-04-20 07:53:20 20.8 23 22.6
002EF4D9 2019-04-20 07:20:32 20.9 23 22.7
002EF4D9 2019-04-20 06:47:45 20.9 23 23
002EF4D9 2019-04-20 06:14:59 20.9 23 23
002EF4D9 2019-04-20 05:42:13 20.8 23 23.1
002EF4D9 2019-04-20 05:09:27 20.9 23 23
002EF4D9 2019-04-20 04:36:41 20.9 23 23.2
002EF4D9 2019-04-20 04:03:56 20.8 22 23.4
002EF4D9 2019-04-20 03:31:10 20.9 22 23.4
002EF4D9 2019-04-20 02:58:23 20.8 22 23.5
002EF4D9 2019-04-20 02:25:37 20.9 22 23.4
002EF4D9 2019-04-20 01:52:50 20.9 22 23.2
002EF4D9 2019-04-20 01:20:03 20.9 22 23.3
002EF4D9 2019-04-20 00:47:17 20.8 22 23.4
002EF4D9 2019-04-20 00:14:31 20.7 22 23.3
002EF4D9 2019-04-19 23:41:44 20.8 22 22.7
002EF4D9 2019-04-19 23:08:57 20.9 22 22.7
002EF4D9 2019-04-19 22:36:11 20.7 22 22.7
002EF4D9 2019-04-19 22:03:24 20.7 22 22.8
002EF4D9 2019-04-19 21:30:38 20.9 22 22.8
002EF4D9 2019-04-19 20:57:50 20.9 22 22.6
002EF4D9 2019-04-19 20:25:03 20.9 22 22.6
002EF4D9 2019-04-19 19:52:17 20.8 22 22.3
002EF4D9 2019-04-19 19:19:30 20.7 22 22.1
002EF4D9 2019-04-19 18:46:43 20.7 22 22
002EF4D9 2019-04-19 18:13:57 20.7 22 21.7
002EF4D9 2019-04-19 17:41:10 20.7 22 21.7
002EF4D9 2019-04-19 17:08:25 20.7 22 21.5
002EF4D9 2019-04-19 16:35:38 20.7 22 21.5
002EF4D9 2019-04-19 16:02:51 20.7 22 21.3
002EF4D9 2019-04-19 15:30:04 20.6 22 21.3
002EF4D9 2019-04-19 14:57:17 20.6 22 20.9
002EF4D9 2019-04-19 14:24:30 20.6 23 20.5
002EF4D9 2019-04-19 13:51:43 20.7 23 20.6
002EF4D9 2019-04-19 13:18:56 20.7 23 20.2
002EF4D9 2019-04-19 12:46:09 20.7 23 20.1
002EF4D9 2019-04-19 12:13:21 20.7 23 20.1
002EF4D9 2019-04-19 11:40:34 20.8 23 20
002EF4D9 2019-04-19 11:07:48 20.8 24 19.7
002EF4D9 2019-04-19 10:35:01 20.8 24 19.6
002EF4D9 2019-04-19 10:02:14 20.9 24 19.2
002EF4D9 2019-04-19 09:29:29 20.9 24 19.1
002EF4D9 2019-04-19 08:56:43 20.9 24 18.5
002EF4D9 2019-04-19 08:23:57 20.9 24 18.7
002EF4D9 2019-04-19 07:51:10 21.1 24 19
002EF4D9 2019-04-19 07:18:24 21 24 19.2
002EF4D9 2019-04-19 06:45:38 21.1 25 19.1
002EF4D9 2019-04-19 06:12:51 21 25 19.1
002EF4D9 2019-04-19 05:40:04 21.1 25 18.9
002EF4D9 2019-04-19 05:07:17 21.1 25 18.5
002EF4D9 2019-04-19 04:34:33 21 25 18.8
002EF4D9 2019-04-19 04:01:43 21 25 18.6
002EF4D9 2019-04-19 03:28:56 21.1 25 20.4
002EF4D9 2019-04-19 02:56:09 21.1 25 21.7
002EF4D9 2019-04-19 02:23:23 21.1 25 22.7
002EF4D9 2019-04-19 01:50:37 21.1 25 23.5
002EF4D9 2019-04-19 01:17:49 21.1 25 23.8
002EF4D9 2019-04-19 00:45:02 21.1 25 24
002EF4D9 2019-04-19 00:12:15 21.1 25 24.5
002EF4D9 2019-04-18 23:39:28 21.1 25 24.7
002EF4D9 2019-04-18 23:06:43 21.1 25 24.9
002EF4D9 2019-04-18 22:33:57 21.1 25 25.1
002EF4D9 2019-04-18 22:01:12 21 25 25.4
002EF4D9 2019-04-18 21:28:23 21.1 25 25.7
002EF4D9 2019-04-18 20:55:36 21 25 25.8
002EF4D9 2019-04-18 20:22:50 21.1 25 26
002EF4D9 2019-04-18 19:50:03 21.1 25 26.2
002EF4D9 2019-04-18 19:17:16 21.1 25 26.6
002EF4D9 2019-04-18 18:44:29 21.1 25 26.7
002EF4D9 2019-04-18 18:11:42 21.3 25 26.8
002EF4D9 2019-04-18 17:38:55 21.3 25 26.8
002EF4D9 2019-04-18 17:06:08 21.3 25 26.9
002EF4D9 2019-04-18 16:33:22 21.3 25 27.1
002EF4D9 2019-04-18 16:00:35 21.3 25 27.2
002EF4D9 2019-04-18 15:27:49 21.3 25 27.4
002EF4D9 2019-04-18 14:55:03 21.3 25 27.4
002EF4D9 2019-04-18 14:22:17 21.5 25 27.6
002EF4D9 2019-04-18 13:49:31 21.5 25 27.4
002EF4D9 2019-04-18 13:16:44 21.5 24 27.2
002EF4D9 2019-04-18 12:43:58 21.7 24 26.9
002EF4D9 2019-04-18 12:11:12 22.2 22 26.7
002EF4D9 2019-04-18 11:38:26 22.2 21 26.7
002EF4D9 2019-04-18 11:05:39 22.2 22 26.7
002EF4D9 2019-04-18 10:32:52 22.1 22 26.5
002EF4D9 2019-04-18 10:00:07 22.1 22 26.4
002EF4D9 2019-04-18 09:27:20 22 22 26.3
002EF4D9 2019-04-18 08:54:34 22 21 26.3
002EF4D9 2019-04-18 08:21:47 22 21 26.2
002EF4D9 2019-04-18 07:49:00 22.1 21 26.4
002EF4D9 2019-04-18 07:16:14 22.1 22 26.3
002EF4D9 2019-04-18 06:43:27 22.2 22 26.3
002EF4D9 2019-04-18 06:10:42 22.1 22 26.4
002EF4D9 2019-04-18 05:37:55 22.2 22 26.4
002EF4D9 2019-04-18 05:05:08 22.1 22 26.3
002EF4D9 2019-04-18 04:32:20 22.2 22 26.3
002EF4D9 2019-04-18 03:59:32 22.2 22 26.3
002EF4D9 2019-04-18 03:26:44 22.2 22 26.3
002EF4D9 2019-04-18 02:53:57 22.1 22 26.1
002EF4D9 2019-04-18 02:21:10 22.1 22 26.3
002EF4D9 2019-04-18 01:48:23 22.3 22 26.5
002EF4D9 2019-04-18 01:15:34 22.3 22 26.5
002EF4D9 2019-04-18 00:42:47 22.3 22 26.6
002EF4D9 2019-04-18 00:09:59 22.3 22 26.7
002EF4D9 2019-04-17 23:37:12 22.3 22 26.7
002EF4D9 2019-04-17 23:04:26 22.4 22 26.7
002EF4D9 2019-04-17 22:31:39 22.4 22 26.7
002EF4D9 2019-04-17 21:58:53 22.6 22 26.7
002EF4D9 2019-04-17 21:26:07 22.6 22 26.7
002EF4D9 2019-04-17 20:53:20 22.6 22 26.7
002EF4D9 2019-04-17 20:20:33 22.6 22 26.8
002EF4D9 2019-04-17 19:47:46 22.6 22 26.8
002EF4D9 2019-04-17 19:14:59 22.7 22 26.8
002EF4D9 2019-04-17 18:42:12 22.8 22 26.9
002EF4D9 2019-04-17 18:09:25 22.8 21 26.7
002EF4D9 2019-04-17 17:36:38 22.8 21 26.8
002EF4D9 2019-04-17 17:03:51 22.8 22 27
002EF4D9 2019-04-17 16:31:04 22.8 22 26.9
002EF4D9 2019-04-17 15:58:17 22.8 22 26.7
002EF4D9 2019-04-17 15:25:30 22.7 23 26.8
002EF4D9 2019-04-17 14:52:44 22.5 23 26.6
002EF4D9 2019-04-17 14:19:57 22.6 23 26.8
002EF4D9 2019-04-17 13:47:09 22.6 23 26.8
002EF4D9 2019-04-17 13:14:22 22.3 23 26.8
002EF4D9 2019-04-17 12:41:34 22.4 23 26.6
002EF4D9 2019-04-17 12:08:47 22.2 22 26.5
002EF4D9 2019-04-17 11:36:00 22.2 22 26.4
002EF4D9 2019-04-17 11:03:13 22.1 22 26.5
002EF4D9 2019-04-17 10:30:26 22.1 21 26.4
002EF4D9 2019-04-17 09:57:40 22.1 21 26.6
002EF4D9 2019-04-17 09:24:53 21.9 21 26.6
002EF4D9 2019-04-17 08:52:06 22 21 26.5
002EF4D9 2019-04-17 08:19:18 22 20 26.6
002EF4D9 2019-04-17 07:46:32 21.9 20 26.6
002EF4D9 2019-04-17 07:13:45 22 20 26.7
002EF4D9 2019-04-17 06:40:58 21.9 20 26.6
002EF4D9 2019-04-17 06:08:12 22 20 26.7
002EF4D9 2019-04-17 05:35:26 21.9 20 26.7
002EF4D9 2019-04-17 05:02:40 21.9 20 26.5
002EF4D9 2019-04-17 04:29:55 22 20 26.6
002EF4D9 2019-04-17 03:57:10 22 20 26.6
002EF4D9 2019-04-17 03:24:25 22.1 20 26.3
002EF4D9 2019-04-17 02:51:40 22.1 20 26.4
002EF4D9 2019-04-17 02:18:54 22.1 20 26.4
002EF4D9 2019-04-17 01:46:08 22.1 20 26.3
002EF4D9 2019-04-17 01:13:21 22.1 20 26.4
002EF4D9 2019-04-17 00:40:35 22.2 20 26.4
002EF4D9 2019-04-17 00:07:48 22.1 20 26.5
002EF4D9 2019-04-16 23:35:02 22.2 20 26.4
002EF4D9 2019-04-16 23:02:17 22.2 20 26.4
002EF4D9 2019-04-16 22:29:30 22.3 20 26.5
002EF4D9 2019-04-16 21:56:44 22.3 20 26.5
002EF4D9 2019-04-16 21:23:56 22.4 20 26.3
002EF4D9 2019-04-16 20:51:10 22.4 20 26.2
002EF4D9 2019-04-16 20:18:23 22.3 19 26.2
002EF4D9 2019-04-16 19:45:36 22.4 19 26.2
002EF4D9 2019-04-16 19:12:50 22.4 19 26.2
002EF4D9 2019-04-16 18:40:03 22.4 19 26.4
002EF4D9 2019-04-16 18:07:17 22.5 19 26.4
002EF4D9 2019-04-16 17:34:31 22.6 19 26.3
002EF4D9 2019-04-16 17:01:44 22.6 19 26.4
002EF4D9 2019-04-16 16:28:57 22.6 19 26.5
002EF4D9 2019-04-16 15:56:10 22.6 19 26.4
002EF4D9 2019-04-16 15:23:23 22.6 19 26.5
002EF4D9 2019-04-16 14:50:37 22.4 19 26.4
002EF4D9 2019-04-16 14:17:50 22.4 19 26.3
002EF4D9 2019-04-16 13:45:04 22.4 19 26.4
002EF4D9 2019-04-16 13:12:17 22.2 19 26.3
002EF4D9 2019-04-16 12:39:31 22.2 18 26.2
002EF4D9 2019-04-16 12:06:45 22.1 18 26.4
002EF4D9 2019-04-16 11:33:58 22.1 18 26.6
002EF4D9 2019-04-16 11:01:13 22.1 18 26.8
002EF4D9 2019-04-16 10:28:26 22 18 26.7
002EF4D9 2019-04-16 09:55:41 21.9 18 27
002EF4D9 2019-04-16 09:22:55 21.9 18 26.9
002EF4D9 2019-04-16 08:50:08 22 18 26.7
002EF4D9 2019-04-16 08:17:22 22 18 26.8
002EF4D9 2019-04-16 07:44:38 21.9 18 26.9
002EF4D9 2019-04-16 07:11:52 21.9 17 26.9
002EF4D9 2019-04-16 06:39:06 21.9 18 26.7
002EF4D9 2019-04-16 06:06:19 21.9 18 26.7
002EF4D9 2019-04-16 05:33:34 21.9 17 26.8
002EF4D9 2019-04-16 05:00:47 21.9 17 26.6
002EF4D9 2019-04-16 04:28:00 22 17 26.6
002EF4D9 2019-04-16 03:55:12 22 17 26.6
002EF4D9 2019-04-16 03:22:24 22 17 26.5
002EF4D9 2019-04-16 02:49:37 22 17 26.7
002EF4D9 2019-04-16 02:16:51 21.9 17 26.7
002EF4D9 2019-04-16 01:44:03 22 17 26.6
002EF4D9 2019-04-16 01:11:16 22.1 17 26.6
002EF4D9 2019-04-16 00:38:28 22.1 17 26.5
002EF4D9 2019-04-16 00:05:41 22.2 17 26.5
002EF4D9 2019-04-15 23:32:56 22.2 17 26.4
002EF4D9 2019-04-15 23:00:10 22.2 17 26.5
002EF4D9 2019-04-15 22:27:25 22.1 17 26.3
002EF4D9 2019-04-15 21:54:38 22.2 17 26.1
002EF4D9 2019-04-15 21:21:52 22.3 17 26.1
002EF4D9 2019-04-15 20:49:06 22.4 17 26.2
002EF4D9 2019-04-15 20:16:18 22.4 16 26
002EF4D9 2019-04-15 19:43:31 22.3 16 25.9
002EF4D9 2019-04-15 19:10:44 22.4 16 26.3
002EF4D9 2019-04-15 18:37:58 22.4 15 26.5
002EF4D9 2019-04-15 18:05:11 22.4 15 26.5
002EF4D9 2019-04-15 17:32:25 22.6 15 26.5
002EF4D9 2019-04-15 16:59:39 22.6 15 26.6
002EF4D9 2019-04-15 16:26:53 22.6 16 26.6
002EF4D9 2019-04-15 15:54:08 22.5 16 26.6
002EF4D9 2019-04-15 15:21:21 22.5 16 26.6
002EF4D9 2019-04-15 14:48:34 22.3 16 26.6
002EF4D9 2019-04-15 14:15:48 22.4 16 26.6
002EF4D9 2019-04-15 13:43:01 22.4 16 26.6
002EF4D9 2019-04-15 13:10:15 22.2 17 26.5
002EF4D9 2019-04-15 12:37:29 22.2 17 26.5
002EF4D9 2019-04-15 12:04:42 22.2 16 26.7
002EF4D9 2019-04-15 11:31:55 22.1 16 26.8
002EF4D9 2019-04-15 10:59:08 22 16 26.7
002EF4D9 2019-04-15 10:26:20 21.9 17 26.9
002EF4D9 2019-04-15 09:53:32 21.9 17 27.1
002EF4D9 2019-04-15 09:20:46 21.9 17 26.9
002EF4D9 2019-04-15 08:47:59 21.8 17 27
002EF4D9 2019-04-15 08:15:12 21.8 17 27
002EF4D9 2019-04-15 07:42:25 21.7 17 26.8
002EF4D9 2019-04-15 07:09:37 21.7 17 26.8
002EF4D9 2019-04-15 06:36:51 21.7 18 26.8
002EF4D9 2019-04-15 06:04:04 21.7 18 26.9
002EF4D9 2019-04-15 05:31:17 21.7 18 26.7
002EF4D9 2019-04-15 04:58:30 21.7 18 26.5
002EF4D9 2019-04-15 04:25:42 21.7 18 26.5
002EF4D9 2019-04-15 03:52:54 21.7 18 26.5
002EF4D9 2019-04-15 03:20:06 21.7 18 26.5
002EF4D9 2019-04-15 02:47:18 21.7 18 26.5
002EF4D9 2019-04-15 02:14:30 21.7 18 26.5
002EF4D9 2019-04-15 01:41:43 21.7 18 26.4
002EF4D9 2019-04-15 01:08:56 21.7 18 26.3
002EF4D9 2019-04-15 00:36:07 21.7 18 26.3
002EF4D9 2019-04-15 00:03:20 21.7 18 26.6
002EF4D9 2019-04-14 23:30:32 21.7 18 26.4
002EF4D9 2019-04-14 22:57:45 21.8 18 26.4
002EF4D9 2019-04-14 22:24:58 21.8 18 26.3
002EF4D9 2019-04-14 21:52:12 21.9 18 26.3
002EF4D9 2019-04-14 21:19:24 21.8 19 26.4
002EF4D9 2019-04-14 20:46:37 21.9 19 26.2
002EF4D9 2019-04-14 20:13:49 21.9 19 26.4
002EF4D9 2019-04-14 19:41:03 21.9 19 26.6
002EF4D9 2019-04-14 19:08:17 21.9 18 26.7
002EF4D9 2019-04-14 18:35:31 21.8 18 26.9
002EF4D9 2019-04-14 18:02:45 21.7 18 27
002EF4D9 2019-04-14 17:29:58 21.7 18 27
002EF4D9 2019-04-14 16:57:12 21.7 18 27
002EF4D9 2019-04-14 16:24:25 21.7 18 27.1
002EF4D9 2019-04-14 15:51:38 21.7 19 27.1
002EF4D9 2019-04-14 15:18:51 21.8 19 27.1
002EF4D9 2019-04-14 14:46:04 21.8 19 27.1
002EF4D9 2019-04-14 14:13:18 21.8 19 27.2
002EF4D9 2019-04-14 13:40:31 21.7 19 27
002EF4D9 2019-04-14 13:07:44 21.8 19 27.1
002EF4D9 2019-04-14 12:34:56 21.8 19 27
002EF4D9 2019-04-14 12:02:09 21.8 19 27.1
002EF4D9 2019-04-14 11:29:21 21.8 19 27.3
002EF4D9 2019-04-14 10:56:33 21.7 19 27.3
002EF4D9 2019-04-14 10:23:46 21.7 19 27
002EF4D9 2019-04-14 09:51:00 21.8 19 27.1
002EF4D9 2019-04-14 09:18:13 21.8 19 27.3
002EF4D9 2019-04-14 08:45:25 21.8 19 27.2
002EF4D9 2019-04-14 08:12:37 21.7 19 27.3
002EF4D9 2019-04-14 07:39:50 21.8 18 27.3
002EF4D9 2019-04-14 07:07:02 21.8 18 27.3
002EF4D9 2019-04-14 06:34:15 21.7 18 27.2
002EF4D9 2019-04-14 06:01:27 21.7 18 27
002EF4D9 2019-04-14 05:28:39 21.7 18 27
002EF4D9 2019-04-14 04:55:52 21.8 18 27
002EF4D9 2019-04-14 04:23:05 21.7 18 26.8
002EF4D9 2019-04-14 03:50:17 21.7 18 26.9
002EF4D9 2019-04-14 03:17:29 21.8 18 26.8
002EF4D9 2019-04-14 02:44:41 21.8 19 26.6
002EF4D9 2019-04-14 02:11:53 21.8 19 26.6
002EF4D9 2019-04-14 01:39:06 21.9 19 26.6
002EF4D9 2019-04-14 01:06:18 21.9 19 26.8
002EF4D9 2019-04-14 00:33:28 21.9 19 26.9
002EF4D9 2019-04-14 00:00:40 21.9 18 27.1
002EF4D9 2019-04-13 23:27:53 21.9 18 27.1
002EF4D9 2019-04-13 22:55:05 21.9 18 27.2
002EF4D9 2019-04-13 22:22:19 21.9 18 27.2
002EF4D9 2019-04-13 21:49:30 22 18 27.1
002EF4D9 2019-04-13 21:16:42 22 18 27.1
002EF4D9 2019-04-13 20:43:54 22 18 27.3
002EF4D9 2019-04-13 20:11:07 22 18 27.3
002EF4D9 2019-04-13 19:38:18 22.1 18 27.3
002EF4D9 2019-04-13 19:05:30 22.1 19 27.4
002EF4D9 2019-04-13 18:32:42 22.1 19 27.2
002EF4D9 2019-04-13 17:59:54 22.2 19 27.3
002EF4D9 2019-04-13 17:27:05 22.2 19 27.4
002EF4D9 2019-04-13 16:54:18 22.1 19 27.5
002EF4D9 2019-04-13 16:21:31 22.2 19 27.7
002EF4D9 2019-04-13 15:48:44 22.2 19 27.5
002EF4D9 2019-04-13 15:15:57 22.2 19 27.5
002EF4D9 2019-04-13 14:43:10 22.2 19 27.6
002EF4D9 2019-04-13 14:10:24 22.2 19 27.5
002EF4D9 2019-04-13 13:37:36 22.2 19 27.5
002EF4D9 2019-04-13 13:04:49 22.2 19 27.5
002EF4D9 2019-04-13 12:32:01 22.2 19 27.5
002EF4D9 2019-04-13 11:59:14 22.2 19 27.5
002EF4D9 2019-04-13 11:26:26 22.2 19 27.4
002EF4D9 2019-04-13 10:53:40 22.2 19 27.3
002EF4D9 2019-04-13 10:20:52 22.2 19 27.2
002EF4D9 2019-04-13 09:48:05 22.2 19 27.2
002EF4D9 2019-04-13 09:15:19 22.2 19 27.2
002EF4D9 2019-04-13 08:42:31 22.1 19 27.5
002EF4D9 2019-04-13 08:09:42 22.2 19 27.5
002EF4D9 2019-04-13 07:36:55 22.2 19 27.4
002EF4D9 2019-04-13 07:04:08 22.2 19 27.3
002EF4D9 2019-04-13 06:31:20 22.1 19 27.5
002EF4D9 2019-04-13 05:58:32 22.2 19 27.4
002EF4D9 2019-04-13 05:25:44 22.2 19 27.3
002EF4D9 2019-04-13 04:52:57 22.2 19 27.4
002EF4D9 2019-04-13 04:20:09 22.2 19 27.3
002EF4D9 2019-04-13 03:47:21 22.2 18 27.4
002EF4D9 2019-04-13 03:14:34 22.3 19 27.1
002EF4D9 2019-04-13 02:41:45 22.4 19 26.8
002EF4D9 2019-04-13 02:08:58 22.4 19 26.9
002EF4D9 2019-04-13 01:36:09 22.4 20 26.8
002EF4D9 2019-04-13 01:03:21 22.4 20 26.8
002EF4D9 2019-04-13 00:30:33 22.4 20 26.9
002EF4D9 2019-04-12 23:57:44 22.4 20 27
002EF4D9 2019-04-12 23:24:55 22.5 20 27
002EF4D9 2019-04-12 22:52:06 22.6 20 27.1
002EF4D9 2019-04-12 22:19:17 22.6 20 27.1
002EF4D9 2019-04-12 21:46:27 22.6 20 27.1
002EF4D9 2019-04-12 21:13:38 22.5 20 27
002EF4D9 2019-04-12 20:40:50 22.6 20 27.1
002EF4D9 2019-04-12 20:08:01 22.6 20 27.1
002EF4D9 2019-04-12 19:35:13 22.7 20 26.9
002EF4D9 2019-04-12 19:02:23 22.8 19 26.5
002EF4D9 2019-04-12 18:29:34 22.8 18 26.6
002EF4D9 2019-04-12 17:56:45 22.8 17 26.7
002EF4D9 2019-04-12 17:23:56 22.8 18 26.6
002EF4D9 2019-04-12 16:51:07 22.8 18 25.9
002EF4D9 2019-04-12 16:18:18 22.8 19 25.7
002EF4D9 2019-04-12 15:45:28 22.5 20 25.8
002EF4D9 2019-04-12 15:12:39 22.4 20 25.1
002EF4D9 2019-04-12 14:39:50 22.2 21 25.8
002EF4D9 2019-04-12 14:07:01 21.8 21 18.6
002EF4D9 2019-04-12 13:34:11 21.3 23 19.9
002EF4D9 2019-04-12 13:01:20 20.5 30 0